When you browse on this site, cookies collect data to enhance your experience and personalize the content and advertising you see.
Visit our Privacy Policy to learn more. By continuing to use the site, you agree to this use of cookies and data.
  • In Austria
  • List of Countries
  • For 7 days
  • Water Temperature
  • Weather Map
  • News
  • Weather Widgets
  • user-avatar
    Login

    Hourly Weather Doxey

    Today, 15 November, Friday

    Time Temperature Precipitation Wind Pressure Humidity
    00:00 +14°C° 0 mm 2 mps 597 mmHg 87%
    01:00 +13°C° 0 mm 2 mps 597 mmHg 86%
    02:00 +13°C° 0 mm 2 mps 596 mmHg 85%
    03:00 +13°C° 0 mm 1 mps 596 mmHg 86%
    04:00 +13°C° 0 mm 1 mps 597 mmHg 86%
    05:00 +13°C° 0 mm 1 mps 597 mmHg 86%
    06:00 +13°C° 0 mm 1 mps 597 mmHg 86%
    07:00 +13°C° 0 mm 1 mps 598 mmHg 85%
    08:00 +14°C° 0 mm 2 mps 598 mmHg 84%
    09:00 +14°C° 0 mm 2 mps 598 mmHg 80%
    10:00 +15°C° 0 mm 2 mps 598 mmHg 76%
    11:00 +16°C° 0 mm 3 mps 599 mmHg 72%
    12:00 +16°C° 0 mm 3 mps 598 mmHg 71%
    13:00 +17°C° 0 mm 3 mps 597 mmHg 70%
    14:00 +17°C° 0 mm 3 mps 597 mmHg 69%
    15:00 +16°C° 0 mm 3 mps 596 mmHg 73%
    16:00 +14°C° 0 mm 3 mps 596 mmHg 77%
    17:00 +13°C° 0 mm 3 mps 596 mmHg 81%
    18:00 +13°C° 0 mm 2 mps 596 mmHg 82%
    19:00 +13°C° 0 mm 2 mps 596 mmHg 84%
    20:00 +12°C° 0 mm 2 mps 597 mmHg 86%
    21:00 +12°C° 0 mm 1 mps 597 mmHg 86%
    22:00 +12°C° 0 mm 1 mps 596 mmHg 86%
    23:00 +12°C° 0 mm 1 mps 596 mmHg 86%

    Tomorrow, 16 November, Saturday

    Time Temperature Precipitation Wind Pressure Humidity
    00:00 +12°C° 0 mm 1 mps 596 mmHg 86%
    01:00 +12°C° 0 mm 1 mps 596 mmHg 86%
    02:00 +12°C° 0 mm 1 mps 595 mmHg 86%
    03:00 +11°C° 0.1 mm 0 mps 595 mmHg 86%
    04:00 +11°C° 0.1 mm 0 mps 595 mmHg 86%
    05:00 +11°C° 0.1 mm 0 mps 596 mmHg 86%
    06:00 +12°C° 0.1 mm 0 mps 596 mmHg 84%
    07:00 +12°C° 0.1 mm 0 mps 596 mmHg 83%
    08:00 +13°C° 0.1 mm 0 mps 597 mmHg 81%
    09:00 +15°C° 0 mm 1 mps 597 mmHg 75%
    10:00 +18°C° 0 mm 1 mps 597 mmHg 68%
    11:00 +20°C° 0 mm 1 mps 598 mmHg 62%
    12:00 +19°C° 0.1 mm 2 mps 597 mmHg 61%
    13:00 +20°C° 0.1 mm 3 mps 597 mmHg 59%
    14:00 +20°C° 0.1 mm 3 mps 596 mmHg 58%
    15:00 +19°C° 0.1 mm 3 mps 596 mmHg 62%
    16:00 +18°C° 0.1 mm 3 mps 596 mmHg 65%
    17:00 +18°C° 0.1 mm 2 mps 596 mmHg 69%
    18:00 +17°C° 0 mm 2 mps 596 mmHg 73%
    19:00 +16°C° 0 mm 1 mps 596 mmHg 77%
    20:00 +16°C° 0 mm 1 mps 596 mmHg 81%
    21:00 +15°C° 0 mm 1 mps 596 mmHg 82%
    22:00 +14°C° 0 mm 0 mps 596 mmHg 83%
    23:00 +14°C° 0 mm 0 mps 595 mmHg 84%

    Day after tomorrow, 17 November, Sunday

    Time Temperature Precipitation Wind Pressure Humidity
    00:00 +14°C° 0 mm 0 mps 595 mmHg 86%
    01:00 +13°C° 0 mm 0 mps 594 mmHg 87%
    02:00 +13°C° 0 mm 0 mps 594 mmHg 89%
    03:00 +12°C° 0 mm 0 mps 594 mmHg 89%
    04:00 +12°C° 0 mm 0 mps 594 mmHg 89%
    05:00 +12°C° 0 mm 0 mps 594 mmHg 89%
    06:00 +13°C° 0 mm 0 mps 595 mmHg 82%
    07:00 +15°C° 0 mm 0 mps 596 mmHg 75%
    08:00 +18°C° 0 mm 1 mps 596 mmHg 69%
    09:00 +20°C° 0 mm 1 mps 596 mmHg 61%
    10:00 +20°C° 0 mm 2 mps 597 mmHg 53%
    11:00 +22°C° 0 mm 3 mps 597 mmHg 46%
    12:00 +22°C° 0 mm 3 mps 596 mmHg 45%
    13:00 +22°C° 0 mm 4 mps 596 mmHg 44%
    14:00 +22°C° 0 mm 4 mps 595 mmHg 44%
    15:00 +21°C° 0.1 mm 4 mps 595 mmHg 51%
    16:00 +20°C° 0.1 mm 3 mps 595 mmHg 58%
    17:00 +18°C° 0.1 mm 3 mps 595 mmHg 65%
    18:00 +18°C° 0.1 mm 2 mps 595 mmHg 69%
    19:00 +17°C° 0.1 mm 2 mps 595 mmHg 73%
    20:00 +16°C° 0.1 mm 1 mps 595 mmHg 76%
    21:00 +16°C° 0 mm 1 mps 595 mmHg 78%
    22:00 +16°C° 0 mm 1 mps 595 mmHg 80%
    23:00 +14°C° 0 mm 0 mps 594 mmHg 82%

    18 November, Monday

    Time Temperature Precipitation Wind Pressure Humidity
    00:00 +14°C° 0 mm 0 mps 594 mmHg 81%
    01:00 +14°C° 0 mm 0 mps 594 mmHg 81%
    02:00 +14°C° 0 mm 0 mps 594 mmHg 80%
    03:00 +13°C° 0 mm 0 mps 593 mmHg 83%
    04:00 +13°C° 0 mm 0 mps 593 mmHg 85%
    05:00 +12°C° 0 mm 0 mps 593 mmHg 88%
    06:00 +13°C° 0 mm 0 mps 594 mmHg 82%
    07:00 +14°C° 0 mm 0 mps 595 mmHg 76%
    08:00 +15°C° 0 mm 0 mps 595 mmHg 71%
    09:00 +19°C° 0 mm 1 mps 595 mmHg 65%
    10:00 +20°C° 0 mm 1 mps 595 mmHg 59%
    11:00 +20°C° 0 mm 2 mps 596 mmHg 53%
    12:00 +21°C° 0.2 mm 2 mps 595 mmHg 52%
    13:00 +21°C° 0.2 mm 3 mps 595 mmHg 51%
    14:00 +21°C° 0.2 mm 3 mps 594 mmHg 50%
    15:00 +20°C° 0.1 mm 3 mps 594 mmHg 54%
    16:00 +19°C° 0.1 mm 2 mps 594 mmHg 58%
    17:00 +19°C° 0.1 mm 1 mps 594 mmHg 63%
    18:00 +19°C° 0 mm 1 mps 594 mmHg 66%
    19:00 +18°C° 0 mm 1 mps 594 mmHg 69%
    20:00 +18°C° 0 mm 1 mps 595 mmHg 72%
    21:00 +15°C° 0 mm 0 mps 594 mmHg 75%
    22:00 +14°C° 0 mm 0 mps 594 mmHg 78%
    23:00 +14°C° 0 mm 0 mps 594 mmHg 81%

    19 November, Tuesday

    Time Temperature Precipitation Wind Pressure Humidity
    00:00 +13°C° 0 mm 0 mps 594 mmHg 83%
    01:00 +13°C° 0 mm 0 mps 593 mmHg 84%
    02:00 +12°C° 0 mm 0 mps 593 mmHg 85%
    03:00 +12°C° 0 mm 0 mps 593 mmHg 86%
    04:00 +12°C° 0 mm 0 mps 593 mmHg 86%
    05:00 +11°C° 0 mm 0 mps 593 mmHg 87%
    06:00 +14°C° 0 mm 1 mps 594 mmHg 81%
    07:00 +15°C° 0 mm 1 mps 595 mmHg 75%
    08:00 +16°C° 0 mm 1 mps 596 mmHg 70%
    09:00 +17°C° 0 mm 2 mps 596 mmHg 64%
    10:00 +19°C° 0 mm 2 mps 596 mmHg 59%
    11:00 +20°C° 0 mm 3 mps 597 mmHg 54%
    12:00 +20°C° 0 mm 4 mps 596 mmHg 53%
    13:00 +20°C° 0 mm 4 mps 596 mmHg 53%
    14:00 +20°C° 0 mm 4 mps 595 mmHg 53%
    15:00 +18°C° 0 mm 4 mps 595 mmHg 57%
    16:00 +17°C° 0 mm 3 mps 595 mmHg 60%
    17:00 +16°C° 0 mm 3 mps 594 mmHg 64%
    18:00 +15°C° 0 mm 2 mps 595 mmHg 68%
    19:00 +14°C° 0 mm 2 mps 595 mmHg 72%
    20:00 +13°C° 0 mm 1 mps 595 mmHg 77%
    21:00 +13°C° 0 mm 1 mps 595 mmHg 79%
    22:00 +13°C° 0 mm 1 mps 594 mmHg 82%
    23:00 +11°C° 0 mm 0 mps 594 mmHg 85%

    20 November, Wednesday

    Time Temperature Precipitation Wind Pressure Humidity
    00:00 +11°C° 0 mm 0 mps 594 mmHg 87%
    01:00 +11°C° 0 mm 0 mps 593 mmHg 88%
    02:00 +10°C° 0 mm 0 mps 593 mmHg 89%
    03:00 +10°C° 0 mm 0 mps 593 mmHg 88%
    04:00 +11°C° 0 mm 1 mps 593 mmHg 88%
    05:00 +11°C° 0 mm 1 mps 593 mmHg 87%
    06:00 +13°C° 0 mm 1 mps 594 mmHg 80%
    07:00 +14°C° 0 mm 1 mps 595 mmHg 73%
    08:00 +16°C° 0 mm 1 mps 596 mmHg 67%
    09:00 +19°C° 0 mm 1 mps 596 mmHg 61%
    10:00 +20°C° 0 mm 1 mps 597 mmHg 56%
    11:00 +22°C° 0 mm 1 mps 597 mmHg 51%
    12:00 +22°C° 0 mm 1 mps 597 mmHg 50%
    13:00 +23°C° 0 mm 2 mps 596 mmHg 49%
    14:00 +22°C° 0 mm 3 mps 596 mmHg 49%
    15:00 +21°C° 0 mm 3 mps 595 mmHg 54%
    16:00 +20°C° 0 mm 2 mps 595 mmHg 59%
    17:00 +18°C° 0 mm 2 mps 595 mmHg 65%
    18:00 +18°C° 0.1 mm 2 mps 595 mmHg 71%
    19:00 +18°C° 0.1 mm 1 mps 595 mmHg 78%
    20:00 +16°C° 0.1 mm 1 mps 596 mmHg 84%
    21:00 +16°C° 0 mm 1 mps 595 mmHg 85%
    22:00 +15°C° 0 mm 0 mps 595 mmHg 85%
    23:00 +14°C° 0 mm 0 mps 595 mmHg 86%
    Show more